Regional Weather Roundup
Issued by NWS

Home | Current Version | Previous Version | Text Only | Print | Product List | Glossary Off
Versions: 1 2 3 4 5 6 7 8 9 10 11 12 13 14 15 16 17 18 19 20 21 22 23 24 25 26 27 28 29 30 31 32 33 34 35 36 37 38 39 40 41 42 43 44 45 46 47 48 49 50

000
ASUS43 KMPX 301010
RWRMN
WEATHER ROUNDUP FOR MINNESOTA
NATIONAL WEATHER SERVICE TWIN CITIES/CHANHASSEN MN
400 AM CST FRI JAN 30 2015


NOTE: "FAIR" INDICATES FEW OR NO CLOUDS BELOW 12,000 FEET WITH NO
SIGNIFICANT WEATHER AND/OR OBSTRUCTIONS TO VISIBILITY. N/A MEANS
CURRENT SKY AND/OR WEATHER CONDITIONS ARE NOT AVAILABLE.

MNZ060>063-068>070-301100-
   Twin Cities Metro

CITY           SKY/WX    TMP DP  RH WIND       PRES   REMARKS
TWIN CITIES    MOCLDY    13   5  70 N6        30.54F WCI   4
ST PAUL        CLEAR     12   5  73 N7        30.56F WCI   1
CRYSTAL        CLEAR     12   6  77 N3        30.53F
BLAINE         CLEAR     10   7  85 CALM      30.53S
LAKEVILLE      CLEAR     10   7  85 CALM      30.53S
EDEN PRAIRIE   CLEAR     12   6  77 N3        30.53F
SOUTH ST PAUL  FAIR      13   6  73 N3        30.55R
LAKE ELMO      FAIR      10   5  79 CALM      30.54F
$$
MNZ001>005-007-008-013>017-022>024-027-028-301100-
   Northwest Minnesota

CITY           SKY/WX    TMP DP  RH WIND       PRES   REMARKS
BEMIDJI        MOCLDY    -1  -4  86 CALM      30.45F
HALLOCK        CLOUDY     5   0  78 S12       30.47F WCI -11
ROSEAU         MOCLDY     1  -4  78 S5        30.47F WCI  -8
WARROAD        MOCLDY     0  -6  78 CALM      30.47F
THIEF RVR FALL CLOUDY     3   0  85 SE6       30.45F WCI  -8
CROOKSTON      CLOUDY     7   1  78 S8        30.49F WCI  -6
FOSSTON        CLOUDY     1  -2  85 SE6       30.46F WCI -10
DETROIT LAKES  MOCLDY     5   3  92 SE3       30.47F
MOORHEAD       MOCLDY     9   5  85 S7        30.50F WCI  -3
PARK RAPIDS    MOCLDY     4   0  83 CALM      30.44F
MAHNOMEN       FAIR       4  -1  81 S6        30.46F WCI  -7
$$
MNZ006-009>011-018-025>026-301100-
   North Central Minnesota

CITY           SKY/WX    TMP DP  RH WIND       PRES   REMARKS
BAUDETTE       MOCLDY    -4  -8  83 CALM      30.46F
FLAG ISLAND    CLOUDY    -4  -8  84 SW5       30.45F WCI -15
INTL FALLS     MOCLDY    -9 -13  83 CALM      30.47S
WASKISH        CLOUDY    -4  -8  84 CALM      30.47F
BIG FORK       FAIR      -9 -15  77 CALM      30.46S
LONGVILLE      PTCLDY    -2  -6  84 CALM      30.46F
GRAND RAPIDS   MOCLDY     0  -6  78 CALM      30.44F
CRANE LAKE     MOCLDY   -11 -15  84 CALM      30.49F
ORR            MOCLDY    -8 -13  77 CALM      30.43S
COOK           PTCLDY    -8 -11  84 CALM      30.46F
WALKER         FAIR      -2  -6  84 CALM      30.46S
$$
MNZ012-019>021-037-301100-
   Northeast Minnesota

CITY           SKY/WX    TMP DP  RH WIND       PRES   REMARKS
DULUTH         PTCLDY    -1  -6  79 NW7       30.43F WCI -14
ELY            CLOUDY     1  -2  85 W5        30.44F WCI  -8
HIBBING        MOCLDY   -10 -15  78 CALM      30.45F
EVELETH        PTCLDY    -2  -6  84 CALM      30.46F
DULUTH HARBOR  PTCLDY     5   0  78 W6        30.54F WCI  -6
TWO HARBORS    PTCLDY     3  -4  72 CALM      30.46F
SILVER BAY     PTCLDY    -2  -8  78 CALM      30.46S
GRAND MARAIS     N/A     -4  -9  79 NW3       30.51R
G MARAIS ARPRT PTCLDY    -2  -9  71 W5        30.36F WCI -12
$$
MNZ029>031-032-039>041-046>048-054>057-064-301100-
   West Central Minnesota

CITY           SKY/WX    TMP DP  RH WIND       PRES   REMARKS
FERGUS FALLS   MOCLDY     9   1  72 SE6       30.51F WCI  -1
WHEATON        PTCLDY     7   3  85 SE7       30.51F WCI  -5
MORRIS         PTCLDY     7   3  85 CALM      30.49F
ALEXANDRIA     PTCLDY     7   2  80 CALM      30.47F
ELBOW LAKE     FAIR       8   3  80 SE5       30.47F WCI   0
WADENA         PTCLDY     3   0  85 CALM      30.47S
GLENWOOD       PTCLDY     7   3  85 CALM      30.49F
APPLETON       CLEAR      9   7  92 S3        30.52F
BENSON         CLEAR      9   3  78 CALM      30.51F
ORTONVILLE     CLEAR     10   7  85 SE3       30.50F
MADISON        FLURRIES  18  14  86 SE5       30.52F WCI  11
WILLMAR        FAIR      10   5  79 CALM      30.52F
$$
MNZ033>034-036-042>043-049>051-058-059-301100-
   Central Minnesota

CITY           SKY/WX    TMP DP  RH WIND       PRES   REMARKS
ST CLOUD       PTCLDY     9   4  80 CALM      30.51F
SAUK CENTRE    FAIR       7   2  82 CALM      30.50S
PAYNESVILLE    PTCLDY     7   3  86 CALM      30.50F
AITKIN         PTCLDY     9   1  72 CALM      30.47F
PINE RIVER     CLOUDY     3   0  85 CALM      30.49S
BRAINERD       PTCLDY     4   0  83 CALM      30.49F
STAPLES        MOCLDY     3   1  92 CALM      30.47F
LONG PRAIRIE   FAIR       7   3  85 CALM      30.48F
LITTLE FALLS   MOCLDY     9   3  78 CALM      30.51S
LITCHFIELD     CLEAR     10   9  92 CALM      30.52F
BUFFALO        PTCLDY    11   6  81 CALM      30.53F
MAPLE LAKE     PTCLDY    11   8  85 N3        30.53S
$$
MNZ037-044-045-052-053-301100-
   East Central Minnesota

CITY           SKY/WX    TMP DP  RH WIND       PRES   REMARKS
PRINCETON      CLEAR      7   3  85 CALM      30.51F
MORA           CLEAR      7   1  78 CALM      30.53F
CAMBRIDGE      CLEAR      9   0  66 CALM      30.51F
RUSH CITY      PTCLDY     6   1  80 CALM      30.53F
MOOSE LAKE     PTCLDY     1  -2  85 CALM      30.48F
HINCKLEY       FAIR       7   1  78 CALM      30.51F
CLOQUET        PTCLDY     0  -6  78 CALM      30.46F
MCGREGOR       PTCLDY     5   1  85 CALM      30.48F
$$
MNZ071>073-080-081-089-090-097-098-301100-
   Southwest Minnesota

CITY           SKY/WX    TMP DP  RH WIND       PRES   REMARKS
MONTEVIDEO     CLEAR      9   7  92 CALM      30.53F
GRANITE FALLS  PTCLDY    11   8  85 CALM      30.55S
CANBY          MOCLDY    15  12  90 CALM      30.52F
MARSHALL       CLOUDY    16  10  79 CALM      30.52F
REDWOOD FALLS  CLEAR     12   7  80 W3        30.53F
OLIVIA         CLEAR     10   7  85 CALM      30.52F
PIPESTONE      CLOUDY    18  16  93 S3        30.46F
WINDOM         CLEAR     12  10  92 CALM      30.50F
WORTHINGTON    CLOUDY    14  10  85 CALM      30.49S
JACKSON        CLEAR     14  10  85 CALM      30.50F
TRACY          MOCLDY    15  11  86 CALM      30.51F
SLAYTON        CLOUDY    17  13  86 CALM      30.48F
$$
MNZ065>067-074>077-082>085-091>093-301100-
   South Central Minnesota

CITY           SKY/WX    TMP DP  RH WIND       PRES   REMARKS
MANKATO        CLEAR     12   7  79 CALM      30.53S
NEW ULM        CLEAR     10   7  85 CALM      30.53S
ST JAMES       FAIR      12  10  92 CALM      30.54S
FAIRMONT       CLEAR     12   7  79 MISG      30.51S
GLENCOE        CLEAR     12   9  86 CALM      30.52F
FARIBAULT      CLEAR     10   7  85 CALM      30.52F
OWATONNA       CLEAR     12   9  85 CALM      30.51F
WASECA         CLEAR     12   9  85 CALM      30.53F
ALBERT LEA     CLEAR     12  10  92 NW3       30.51S
$$
MNZ078>079-086>088-094>096-301100-
   Southeast Minnesota

CITY           SKY/WX    TMP DP  RH WIND       PRES   REMARKS
ROCHESTER      PTCLDY    10   3  73 N6        30.49F WCI   0
RED WING       CLEAR      9   1  72 CALM      30.54S
STANTON        CLEAR     12   7  79 CALM      30.53R
DODGE CENTER   PTCLDY    10   7  85 CALM      30.49F
WINONA         CLEAR     14   9  79 NW3       30.55F
AUSTIN         CLEAR     12   7  79 N3        30.50F
PRESTON        CLEAR     10   4  80 N7        30.49F WCI  -2
$$
ABBREVIATIONS USED IN REMARKS
   TC - TEMPERATURES IN CELSIUS
  WCI - WIND CHILL INDEX
   HX - HEAT INDEX
  VSB - VISIBILITY
$$



USA.gov is the U.S. government's official web portal to all federal, state and local government web resources and services.